KG6SIB Weather Reports


Display with metric or nautical units.
time (UTC)temp
F
wind
direction
speed
MPH
gust
MPH
rain 1hr
in
rain 24hr
in
rain mn
in
humidity
%
barometer
mb
20171120060203 44 47 9.0 10.0 0.00 0.00 0.00 28 1018.3
20171120055703 44 39 7.0 9.0 0.00 0.00 0.00 28 1018.1
20171120055206 44 40 7.0 9.0 0.00 0.00 0.00 28 1018.0
20171120054704 44 40 6.0 9.0 0.00 0.00 0.00 28 1017.9
20171120054203 44 32 7.0 9.0 0.00 0.00 0.00 28 1018.0
20171120053703 44 30 6.0 9.0 0.00 0.00 0.00 29 1017.9
20171120053203 44 26 6.0 9.0 0.00 0.00 0.00 28 1017.8
20171120052703 45 53 7.0 9.0 0.00 0.00 0.00 27 1017.8
20171120052202 44 47 6.0 8.0 0.00 0.00 0.00 28 1017.8
20171120051703 44 35 4.0 8.0 0.00 0.00 0.00 29 1017.8
20171120051202 44 32 5.0 9.0 0.00 0.00 0.00 28 1017.6
20171120050703 45 64 5.0 9.0 0.00 0.00 0.00 28 1017.5
20171120050204 45 50 5.0 9.0 0.00 0.00 0.00 29 1017.5
20171120045702 45 48 6.0 9.0 0.00 0.00 0.00 30 1017.1
20171120045202 45 44 8.0 9.0 0.00 0.00 0.00 30 1017.1
20171120044703 45 33 6.0 9.0 0.00 0.00 0.00 30 1017.0
20171120044202 45 50 6.0 10.0 0.00 0.00 0.00 30 1017.0
20171120043702 45 61 7.0 10.0 0.00 0.00 0.00 31 1017.0
20171120043203 46 20 7.0 9.0 0.00 0.00 0.00 31 1017.0
20171120042701 46 51 6.0 8.0 0.00 0.00 0.00 31 1017.1
20171120042200 45 27 6.0 7.0 0.00 0.00 0.00 32 1017.0
20171120041702 45 41 6.0 10.0 0.00 0.00 0.00 33 1017.0
20171120040655 45 35 8.0 9.0 0.00 0.00 0.00 33 1017.2
20171120040158 46 52 8.0 9.0 0.00 0.00 0.00 32 1017.3
20171120035657 46 28 6.0 9.0 0.00 0.00 0.00 32 1015.9
20171120035157 45 30 6.0 8.0 0.00 0.00 0.00 31 1015.5
20171120034656 45 54 4.0 9.0 0.00 0.00 0.00 30 1015.4
20171120034155 45 54 7.0 9.0 0.00 0.00 0.00 30 1015.3
20171120033656 44 39 7.0 8.0 0.00 0.00 0.00 30 1015.3
20171120033158 44 50 7.0 9.0 0.00 0.00 0.00 31 1015.3
20171120032657 45 30 6.0 9.0 0.00 0.00 0.00 30 1015.3
20171120032158 45 28 7.0 9.0 0.00 0.00 0.00 32 1015.3
20171120031655 45 53 5.0 9.0 0.00 0.00 0.00 32 1015.2
20171120031155 45 37 7.0 10.0 0.00 0.00 0.00 32 1015.1
20171120030655 44 34 7.0 10.0 0.00 0.00 0.00 33 1015.1
20171120030155 44 58 5.0 10.0 0.00 0.00 0.00 33 1015.0
20171120025654 44 44 9.0 10.0 0.00 0.00 0.00 34 1014.0
20171120025153 44 50 6.0 9.0 0.00 0.00 0.00 35 1014.0
20171120024653 44 37 5.0 9.0 0.00 0.00 0.00 37 1013.9
20171120024154 44 46 7.0 9.0 0.00 0.00 0.00 38 1013.8
20171120023654 44 68 7.0 9.0 0.00 0.00 0.00 38 1013.8
20171120023153 45 26 5.0 9.0 0.00 0.00 0.00 39 1013.7
20171120022654 44 46 4.0 9.0 0.00 0.00 0.00 40 1013.6
20171120022153 45 37 5.0 9.0 0.00 0.00 0.00 41 1013.5
20171120021653 45 50 8.0 9.0 0.00 0.00 0.00 42 1013.4
20171120021153 46 53 6.0 8.0 0.00 0.00 0.00 42 1013.6
20171120020652 47 46 6.0 8.0 0.00 0.00 0.00 42 1013.6
20171120020154 47 53 6.0 8.0 0.00 0.00 0.00 43 1013.6
20171120015653 47 82 6.0 8.0 0.00 0.00 0.00 43 1013.7
20171120015152 47 44 6.0 8.0 0.00 0.00 0.00 43 1013.8
20171120014652 48 55 7.0 9.0 0.00 0.00 0.00 45 1013.7
20171120014152 48 48 6.0 9.0 0.00 0.00 0.00 46 1013.7
20171120013651 49 39 5.0 7.0 0.00 0.00 0.00 47 1014.0
20171120013152 49 56 6.0 7.0 0.00 0.00 0.00 46 1014.1
20171120012652 50 54 5.0 7.0 0.00 0.00 0.00 46 1014.0
20171120012151 50 34 4.0 7.0 0.00 0.00 0.00 46 1013.9
20171120011651 51 25 4.0 7.0 0.00 0.00 0.00 46 1014.1
20171120011150 52 58 5.0 7.0 0.00 0.00 0.00 45 1014.0
20171120010654 52 40 5.0 7.0 0.00 0.00 0.00 44 1013.8
20171120010151 53 34 4.0 7.0 0.00 0.00 0.00 43 1014.0
20171120005651 55 53 6.0 6.0 0.00 0.00 0.00 41 1014.3
20171120005151 57 38 3.0 3.0 0.00 0.00 0.00 39 1014.4
20171120004649 59 41 3.0 3.0 0.00 0.00 0.00 37 1014.5
20171120004149 61 18 0.0 2.0 0.00 0.00 0.00 35 1014.7
20171120003651 62 289 1.0 1.0 0.00 0.00 0.00 34 1014.9
20171120003149 63 247 0.0 1.0 0.00 0.00 0.00 33 1014.9
20171120002650 65 238 0.0 3.0 0.00 0.00 0.00 32 1015.0
20171120002150 65 254 1.0 3.0 0.00 0.00 0.00 31 1014.9
20171120001650 65 264 1.0 3.0 0.00 0.00 0.00 31 1014.9
20171120000653 66 229 1.0 3.0 0.00 0.00 0.00 30 1015.0
20171120000153 66 235 1.0 4.0 0.00 0.00 0.00 30 1015.1
20171119235655 67 225 2.0 4.0 0.00 0.00 0.00 30 1015.1
20171119235155 67 258 3.0 3.0 0.00 0.00 0.00 30 1015.1
20171119234654 67 238 1.0 4.0 0.00 0.00 0.00 30 1015.1
20171119233655 66 266 4.0 4.0 0.00 0.00 0.00 30 1014.9
20171119233157 67 283 2.0 4.0 0.00 0.00 0.00 30 1015.2
20171119232655 67 245 3.0 4.0 0.00 0.00 0.00 29 1015.0
20171119232156 66 230 1.0 5.0 0.00 0.00 0.00 30 1014.8
20171119231655 66 269 3.0 5.0 0.00 0.00 0.00 30 1014.8
20171119231156 66 267 2.0 6.0 0.00 0.00 0.00 30 1014.8
20171119230653 66 212 3.0 6.0 0.00 0.00 0.00 30 1014.8
20171119230154 66 251 3.0 5.0 0.00 0.00 0.00 30 1014.9
20171119225654 66 268 3.0 6.0 0.00 0.00 0.00 29 1015.0
20171119225154 66 291 3.0 6.0 0.00 0.00 0.00 30 1015.0
20171119224654 66 261 2.0 7.0 0.00 0.00 0.00 30 1015.0
20171119224151 66 298 2.0 7.0 0.00 0.00 0.00 29 1015.0
20171119223652 66 248 1.0 8.0 0.00 0.00 0.00 30 1015.0
20171119223153 66 267 3.0 8.0 0.00 0.00 0.00 30 1015.0
20171119222652 66 279 2.0 7.0 0.00 0.00 0.00 29 1015.1
20171119222154 66 282 3.0 7.0 0.00 0.00 0.00 29 1015.2
20171119221654 66 262 6.0 7.0 0.00 0.00 0.00 29 1015.3
20171119221151 67 264 5.0 10.0 0.00 0.00 0.00 29 1015.2
20171119220653 67 288 4.0 11.0 0.00 0.00 0.00 29 1015.2
20171119220153 67 229 4.0 11.0 0.00 0.00 0.00 29 1015.1
20171119215650 67 263 7.0 10.0 0.00 0.00 0.00 28 1015.2
20171119215149 67 272 4.0 8.0 0.00 0.00 0.00 28 1015.2
20171119214654 67 257 6.0 8.0 0.00 0.00 0.00 28 1015.3
20171119214150 68 276 4.0 7.0 0.00 0.00 0.00 28 1015.7
20171119213650 68 294 4.0 7.0 0.00 0.00 0.00 28 1015.6
20171119213151 68 286 4.0 9.0 0.00 0.00 0.00 28 1015.6
20171119212650 68 261 3.0 9.0 0.00 0.00 0.00 27 1015.7
20171119212150 69 271 6.0 6.0 0.00 0.00 0.00 26 1015.8
20171119211649 69 297 4.0 10.0 0.00 0.00 0.00 27 1016.0
20171119211149 69 200 3.0 10.0 0.00 0.00 0.00 28 1016.1
20171119210648 68 300 3.0 8.0 0.00 0.00 0.00 27 1016.1
20171119210155 69 229 5.0 10.0 0.00 0.00 0.00 27 1016.2
20171119205650 69 284 6.0 10.0 0.00 0.00 0.00 26 1016.5
20171119205150 69 269 7.0 10.0 0.00 0.00 0.00 25 1016.4
20171119204648 70 191 4.0 10.0 0.00 0.00 0.00 25 1016.6
20171119204149 70 252 4.0 9.0 0.00 0.00 0.00 25 1016.5
20171119203649 69 257 5.0 9.0 0.00 0.00 0.00 25 1016.5
20171119203147 69 205 2.0 8.0 0.00 0.00 0.00 26 1016.5
20171119202648 69 221 7.0 7.0 0.00 0.00 0.00 25 1016.5
20171119202150 69 223 5.0 9.0 0.00 0.00 0.00 24 1016.4
20171119201648 70 250 4.0 9.0 0.00 0.00 0.00 24 1016.6
20171119200702 70 229 6.0 9.0 0.00 0.00 0.00 24 1016.9
20171119200203 70 258 7.0 11.0 0.00 0.00 0.00 23 1016.9
20171119195702 70 248 6.0 11.0 0.00 0.00 0.00 23 1017.1
20171119195204 71 232 5.0 8.0 0.00 0.00 0.00 23 1017.4
20171119194702 70 228 4.0 8.0 0.00 0.00 0.00 24 1017.2
20171119194202 70 247 4.0 8.0 0.00 0.00 0.00 23 1017.4
20171119193701 70 142 3.0 9.0 0.00 0.00 0.00 24 1017.4
20171119193203 69 258 2.0 9.0 0.00 0.00 0.00 24 1017.5
20171119192703 70 238 2.0 10.0 0.00 0.00 0.00 24 1017.8
20171119192201 69 292 0.0 10.0 0.00 0.00 0.00 23 1017.8
20171119191704 69 250 6.0 8.0 0.00 0.00 0.00 25 1018.0
20171119191200 69 221 4.0 8.0 0.00 0.00 0.00 24 1017.9
20171119190702 69 224 5.0 8.0 0.00 0.00 0.00 24 1018.0
20171119190201 69 302 1.0 8.0 0.00 0.00 0.00 24 1018.3
20171119185701 69 225 4.0 8.0 0.00 0.00 0.00 25 1018.1
20171119185202 69 221 6.0 6.0 0.00 0.00 0.00 25 1018.2
20171119184700 68 181 4.0 6.0 0.00 0.00 0.00 25 1018.2
20171119183700 68 248 4.0 6.0 0.00 0.00 0.00 26 1018.3
20171119183159 67 200 3.0 5.0 0.00 0.00 0.00 27 1018.1
20171119182659 67 221 4.0 6.0 0.00 0.00 0.00 26 1018.2
20171119182201 67 96 3.0 6.0 0.00 0.00 0.00 27 1018.3
20171119181701 67 226 1.0 5.0 0.00 0.00 0.00 27 1018.4
20171119181159 67 117 2.0 7.0 0.00 0.00 0.00 28 1018.5
20171119180700 66 247 1.0 7.0 0.00 0.00 0.00 27 1018.5
20171119180202 66 218 3.0 7.0 0.00 0.00 0.00 27 1018.4
20171119175700 66 212 4.0 6.0 0.00 0.00 0.00 27 1018.8
20171119175200 66 162 3.0 5.0 0.00 0.00 0.00 27 1018.9
20171119174703 66 266 3.0 7.0 0.00 0.00 0.00 28 1018.9
20171119174200 65 239 3.0 7.0 0.00 0.00 0.00 28 1018.9
20171119173659 65 233 5.0 7.0 0.00 0.00 0.00 29 1018.9
20171119173201 64 222 3.0 5.0 0.00 0.00 0.00 30 1018.7
20171119172658 64 233 4.0 5.0 0.00 0.00 0.00 29 1018.7
20171119172158 64 218 4.0 5.0 0.00 0.00 0.00 30 1018.7
20171119171657 64 224 3.0 5.0 0.00 0.00 0.00 30 1018.7
20171119171158 64 205 2.0 3.0 0.00 0.00 0.00 31 1018.8
20171119170657 63 162 1.0 4.0 0.00 0.00 0.00 31 1018.7
20171119170156 63 115 2.0 4.0 0.00 0.00 0.00 32 1018.8
20171119165657 63 162 2.0 2.0 0.00 0.00 0.00 32 1019.1
20171119165158 62 209 2.0 3.0 0.00 0.00 0.00 33 1019.1
20171119164657 62 203 2.0 3.0 0.00 0.00 0.00 31 1019.1
20171119164157 62 169 1.0 2.0 0.00 0.00 0.00 32 1019.2
20171119163655 60 72 0.0 1.0 0.00 0.00 0.00 35 1018.9
20171119163201 59 60 0.0 1.0 0.00 0.00 0.00 34 1018.6
20171119162657 57 46 0.0 2.0 0.00 0.00 0.00 36 1018.3
20171119162156 56 46 0.0 2.0 0.00 0.00 0.00 37 1018.5
20171119161655 55 50 1.0 2.0 0.00 0.00 0.00 37 1018.4
20171119160656 52 51 0.0 5.0 0.00 0.00 0.00 40 1018.1
20171119160156 50 51 3.0 5.0 0.00 0.00 0.00 42 1017.9
20171119155657 49 51 4.0 5.0 0.00 0.00 0.00 42 1018.3
20171119155155 49 54 3.0 5.0 0.00 0.00 0.00 42 1018.2
20171119154655 49 39 2.0 4.0 0.00 0.00 0.00 44 1018.3
20171119154156 47 54 2.0 4.0 0.00 0.00 0.00 46 1018.1
20171119153656 46 53 2.0 6.0 0.00 0.00 0.00 47 1018.0
20171119153155 46 51 2.0 6.0 0.00 0.00 0.00 47 1018.1
20171119152655 45 47 4.0 6.0 0.00 0.00 0.00 48 1017.9
20171119152154 44 30 4.0 8.0 0.00 0.00 0.00 49 1017.8
20171119151655 43 44 3.0 8.0 0.00 0.00 0.00 49 1017.6
20171119151154 43 44 4.0 7.0 0.00 0.00 0.00 49 1017.8
20171119150655 42 55 4.0 8.0 0.00 0.00 0.00 49 1017.8
20171119150154 43 41 6.0 8.0 0.00 0.00 0.00 49 1017.7
20171119145655 42 41 5.0 8.0 0.00 0.00 0.00 49 1017.7
20171119145154 43 72 6.0 8.0 0.00 0.00 0.00 48 1017.7
20171119144654 43 37 8.0 8.0 0.00 0.00 0.00 47 1017.6
20171119144154 43 46 6.0 7.0 0.00 0.00 0.00 47 1017.5
20171119143653 43 60 5.0 7.0 0.00 0.00 0.00 47 1017.3
20171119143155 43 69 5.0 7.0 0.00 0.00 0.00 47 1017.2
20171119142653 42 39 4.0 7.0 0.00 0.00 0.00 47 1017.1
20171119142153 42 56 4.0 7.0 0.00 0.00 0.00 47 1017.1
20171119141652 42 47 5.0 6.0 0.00 0.00 0.00 47 1017.0
20171119141153 42 37 4.0 6.0 0.00 0.00 0.00 47 1016.9
20171119140654 42 49 5.0 6.0 0.00 0.00 0.00 47 1016.9
20171119140153 43 9 3.0 7.0 0.00 0.00 0.00 46 1016.9
20171119135652 43 49 3.0 7.0 0.00 0.00 0.00 46 1016.4
20171119135152 44 44 3.0 6.0 0.00 0.00 0.00 46 1016.6
20171119134652 43 59 2.0 6.0 0.00 0.00 0.00 47 1016.4
20171119134151 43 51 3.0 6.0 0.00 0.00 0.00 49 1016.4
20171119133652 43 50 2.0 7.0 0.00 0.00 0.00 49 1016.4
20171119133152 43 82 4.0 7.0 0.00 0.00 0.00 49 1016.4
20171119132651 44 55 3.0 6.0 0.00 0.00 0.00 49 1016.6
20171119132151 44 40 5.0 6.0 0.00 0.00 0.00 49 1016.7
20171119131652 44 16 3.0 7.0 0.00 0.00 0.00 50 1016.8
20171119131152 44 58 2.0 7.0 0.00 0.00 0.00 50 1016.6
20171119130652 44 75 3.0 6.0 0.00 0.00 0.00 50 1016.8
20171119130152 44 12 4.0 6.0 0.00 0.00 0.00 50 1016.8
20171119125651 44 60 3.0 6.0 0.00 0.00 0.00 51 1016.9
20171119125152 44 41 3.0 5.0 0.00 0.00 0.00 52 1017.0
20171119124651 44 77 0.0 5.0 0.00 0.00 0.00 52 1017.0
20171119124150 44 60 4.0 5.0 0.00 0.00 0.00 52 1016.9
20171119123651 44 70 3.0 5.0 0.00 0.00 0.00 53 1016.8
20171119123151 43 71 3.0 7.0 0.00 0.00 0.00 53 1016.7
20171119122649 43 51 4.0 7.0 0.00 0.00 0.00 53 1016.8
20171119122150 43 62 7.0 7.0 0.00 0.00 0.00 54 1016.9
20171119121651 43 64 3.0 8.0 0.00 0.00 0.00 54 1017.0
20171119120702 43 35 5.0 7.0 0.00 0.00 0.00 53 1017.0
20171119120201 43 57 5.0 8.0 0.00 0.00 0.00 53 1017.1
20171119115701 43 73 2.0 8.0 0.00 0.00 0.00 53 1018.0
20171119115204 43 55 4.0 7.0 0.00 0.00 0.00 53 1017.9
20171119114700 43 49 5.0 7.0 0.00 0.00 0.00 53 1018.1
20171119114201 43 70 5.0 7.0 0.00 0.00 0.00 53 1017.9
20171119113701 44 53 5.0 7.0 0.00 0.00 0.00 54 1017.9
20171119113202 44 37 3.0 6.0 0.00 0.00 0.00 54 1017.8
20171119112702 44 28 6.0 7.0 0.00 0.00 0.00 55 1017.8
20171119112202 44 62 3.0 7.0 0.00 0.00 0.00 53 1017.8
20171119111700 44 44 3.0 6.0 0.00 0.00 0.00 52 1017.7
20171119111200 44 47 4.0 6.0 0.00 0.00 0.00 53 1017.8
20171119110659 44 44 3.0 8.0 0.00 0.00 0.00 53 1017.7
20171119105659 44 63 5.0 7.0 0.00 0.00 0.00 53 1018.2
20171119105159 44 61 7.0 7.0 0.00 0.00 0.00 55 1018.3
20171119104659 44 37 4.0 7.0 0.00 0.00 0.00 55 1018.4
20171119104158 44 41 4.0 7.0 0.00 0.00 0.00 54 1018.5
20171119103700 44 28 5.0 6.0 0.00 0.00 0.00 54 1018.6
20171119103159 44 45 3.0 6.0 0.00 0.00 0.00 55 1018.6
20171119102659 44 69 3.0 7.0 0.00 0.00 0.00 54 1018.6
20171119102158 44 63 2.0 7.0 0.00 0.00 0.00 54 1018.4
20171119101658 44 63 5.0 7.0 0.00 0.00 0.00 54 1018.5
20171119101159 44 57 3.0 7.0 0.00 0.00 0.00 55 1018.4
20171119100658 44 27 5.0 7.0 0.00 0.00 0.00 54 1018.5
20171119100158 44 53 5.0 7.0 0.00 0.00 0.00 54 1018.6
20171119095658 45 53 4.0 6.0 0.00 0.00 0.00 54 1018.6
20171119095157 45 35 4.0 6.0 0.00 0.00 0.00 54 1018.6
20171119094657 44 60 3.0 7.0 0.00 0.00 0.00 53 1018.6
20171119094158 44 8 3.0 7.0 0.00 0.00 0.00 52 1018.7
20171119093656 44 51 7.0 8.0 0.00 0.00 0.00 53 1018.7
20171119093156 44 75 5.0 8.0 0.00 0.00 0.00 53 1018.8
20171119092657 45 56 4.0 8.0 0.00 0.00 0.00 53 1018.9
20171119092157 45 13 5.0 8.0 0.00 0.00 0.00 53 1019.0
20171119091657 45 46 6.0 8.0 0.00 0.00 0.00 53 1019.1
20171119091156 45 44 3.0 8.0 0.00 0.00 0.00 53 1019.1
20171119090657 45 60 4.0 8.0 0.00 0.00 0.00 52 1019.2
20171119090156 45 60 5.0 8.0 0.00 0.00 0.00 52 1019.2
20171119085658 45 33 4.0 8.0 0.00 0.00 0.00 52 1019.3
20171119085156 45 42 3.0 7.0 0.00 0.00 0.00 52 1019.3
20171119084656 44 55 5.0 7.0 0.00 0.00 0.00 52 1019.4
20171119084156 45 15 4.0 9.0 0.00 0.00 0.00 51 1019.5
20171119083656 45 20 7.0 9.0 0.00 0.00 0.00 49 1019.6
20171119083155 45 37 7.0 8.0 0.00 0.00 0.00 48 1019.6
20171119082655 45 65 6.0 8.0 0.00 0.00 0.00 47 1019.7
20171119082156 45 53 3.0 6.0 0.00 0.00 0.00 47 1019.6
20171119081655 45 35 5.0 7.0 0.00 0.00 0.00 47 1019.6
20171119080703 47 63 2.0 7.0 0.00 0.00 0.00 45 1020.0
20171119080203 47 44 6.0 7.0 0.00 0.00 0.00 44 1019.9
20171119075703 47 26 5.0 7.0 0.00 0.00 0.00 45 1019.8
20171119075202 47 29 6.0 8.0 0.00 0.00 0.00 44 1019.8
20171119074703 47 55 6.0 8.0 0.00 0.00 0.00 46 1019.7
20171119074201 47 35 4.0 6.0 0.00 0.00 0.00 45 1019.7
20171119073702 46 48 2.0 8.0 0.00 0.00 0.00 46 1019.6
20171119073204 46 62 5.0 8.0 0.00 0.00 0.00 45 1019.7
20171119072702 46 57 4.0 7.0 0.00 0.00 0.00 43 1019.8
20171119072204 46 51 3.0 7.0 0.00 0.00 0.00 44 1019.7
20171119071705 46 34 6.0 7.0 0.00 0.00 0.00 45 1019.8
20171119071204 46 30 4.0 7.0 0.00 0.00 0.00 47 1019.8
20171119070701 46 39 5.0 8.0 0.00 0.00 0.00 46 1019.8
20171119070202 46 47 5.0 8.0 0.00 0.00 0.00 45 1019.8
20171119065702 46 35 7.0 7.0 0.00 0.00 0.00 45 1019.5
20171119065201 46 49 4.0 8.0 0.00 0.00 0.00 45 1019.5
20171119064702 46 62 4.0 8.0 0.00 0.00 0.00 44 1019.6
20171119064202 47 34 5.0 7.0 0.00 0.00 0.00 43 1019.6
20171119063704 48 52 5.0 8.0 0.00 0.00 0.00 40 1019.8
20171119063208 49 58 5.0 8.0 0.00 0.00 0.00 40 1019.7
20171119062701 49 54 5.0 7.0 0.00 0.00 0.00 40 1019.7
20171119062200 49 51 5.0 7.0 0.00 0.00 0.00 41 1019.7
20171119061701 48 51 5.0 7.0 0.00 0.00 0.00 41 1019.8
20171119061204 48 72 5.0 6.0 0.00 0.00 0.00 41 1019.8
20171119060702 48 37 3.0 6.0 0.00 0.00 0.00 40 1019.7